TimeCST,TemperatureF,Dew PointF,Humidity,Sea Level PressureIn,VisibilityMPH,Wind Direction,Wind SpeedMPH,Gust SpeedMPH,PrecipitationIn,Events,Conditions,WindDirDegrees,DateUTC
12:53 AM,27.0,23.0,85,29.99,10.0,Calm,Calm,-,N/A,,Clear,0,2013-02-24 06:53:00
1:53 AM,28.0,24.1,85,29.99,10.0,Calm,Calm,-,N/A,,Clear,0,2013-02-24 07:53:00
2:53 AM,28.0,24.1,85,29.97,10.0,Calm,Calm,-,N/A,,Clear,0,2013-02-24 08:53:00
3:53 AM,27.0,24.1,89,29.96,10.0,Calm,Calm,-,N/A,,Clear,0,2013-02-24 09:53:00
4:53 AM,25.0,23.0,92,29.96,10.0,NNW,3.5,-,N/A,,Clear,330,2013-02-24 10:53:00
5:53 AM,24.1,23.0,96,29.97,9.0,NE,3.5,-,N/A,,Clear,40,2013-02-24 11:53:00
6:53 AM,27.0,25.0,92,29.96,10.0,Calm,Calm,-,N/A,,Clear,0,2013-02-24 12:53:00
7:53 AM,30.9,27.0,85,29.98,10.0,Calm,Calm,-,N/A,,Clear,0,2013-02-24 13:53:00
8:53 AM,37.9,30.9,76,29.99,10.0,SE,8.1,-,N/A,,Clear,140,2013-02-24 14:53:00
9:53 AM,43.0,33.1,68,30.00,10.0,SSE,8.1,-,N/A,,Clear,150,2013-02-24 15:53:00
10:53 AM,48.0,35.1,61,29.98,10.0,SE,9.2,-,N/A,,Clear,140,2013-02-24 16:53:00
11:53 AM,53.1,36.0,52,29.96,10.0,SSE,10.4,-,N/A,,Clear,160,2013-02-24 17:53:00
12:53 PM,55.0,37.0,51,29.93,10.0,SE,10.4,-,N/A,,Clear,130,2013-02-24 18:53:00
1:53 PM,55.9,36.0,47,29.90,10.0,SSE,8.1,-,N/A,,Clear,150,2013-02-24 19:53:00
2:53 PM,55.9,35.1,45,29.88,10.0,SE,12.7,17.3,N/A,,Clear,130,2013-02-24 20:53:00
3:53 PM,57.0,34.0,42,29.85,10.0,SE,12.7,-,N/A,,Clear,130,2013-02-24 21:53:00
4:53 PM,55.0,34.0,45,29.85,10.0,SSE,15.0,-,N/A,,Clear,150,2013-02-24 22:53:00
5:53 PM,51.1,33.1,50,29.84,10.0,SE,12.7,-,N/A,,Clear,140,2013-02-24 23:53:00
6:53 PM,48.9,32.0,52,29.84,10.0,SE,11.5,-,N/A,,Clear,130,2013-02-25 00:53:00
7:53 PM,46.9,33.1,59,29.84,10.0,SE,13.8,-,N/A,,Clear,140,2013-02-25 01:53:00
8:53 PM,45.0,32.0,60,29.86,10.0,SE,9.2,-,N/A,,Clear,130,2013-02-25 02:53:00
9:53 PM,42.1,32.0,67,29.86,10.0,East,4.6,-,N/A,,Clear,80,2013-02-25 03:53:00
10:53 PM,39.9,32.0,73,29.85,10.0,East,8.1,-,N/A,,Clear,100,2013-02-25 04:53:00
11:53 PM,39.0,30.9,73,29.85,10.0,East,4.6,-,N/A,,Clear,100,2013-02-25 05:53:00